QTR3R VGHS-OTHH

Flight info

Callsign QTR3R
Flight time N/A
Altitude 34000
Route IKOGU A462 CEA A791 BPL L639 LAXOM/N0499F360 L639 RASKI N881 KIPOL L444 TOLDA M628 TULBU N563 UMIBU P899 TOVOX
Aircraft B77W/H-SDE1E3FGHIJ1J3J4J5M1P2RWXYZ/LB1D1

Departure

Time 2026-04-28 23:13
Airport Hazrat Shahjalal International Airport (VGHS)

Arrival

Time N/A
Airport Hamad International Airport (OTHH)
Time Latitude Longitude Altitude Speed Heading
2026-04-28 22:59 23.84731 90.40423 40 ft 0 kts 54°
2026-04-28 23:03 23.84729 90.40421 41 ft 2 kts 54°
2026-04-28 23:04 23.84716 90.40397 40 ft 4 kts 63°
2026-04-28 23:04 23.84681 90.40364 38 ft 4 kts 358°
2026-04-28 23:04 23.84660 90.40374 40 ft 4 kts 315°
2026-04-28 23:05 23.84648 90.40386 37 ft 1 kts 324°
2026-04-28 23:05 23.84647 90.40387 38 ft 0 kts 324°
2026-04-28 23:07 23.84648 90.40386 36 ft 1 kts 324°
2026-04-28 23:07 23.84683 90.40356 29 ft 8 kts 312°
2026-04-28 23:08 23.84678 90.40296 41 ft 8 kts 240°
2026-04-28 23:08 23.84645 90.40243 41 ft 8 kts 242°
2026-04-28 23:08 23.84665 90.40186 41 ft 11 kts 317°
2026-04-28 23:08 23.84767 90.40103 41 ft 25 kts 324°
2026-04-28 23:09 23.84910 90.39989 41 ft 26 kts 324°
2026-04-28 23:09 23.85053 90.39877 41 ft 26 kts 324°
2026-04-28 23:09 23.85197 90.39763 41 ft 26 kts 323°
2026-04-28 23:09 23.85339 90.39649 41 ft 26 kts 324°
2026-04-28 23:10 23.85483 90.39535 41 ft 26 kts 324°
2026-04-28 23:10 23.85627 90.39421 41 ft 26 kts 324°
2026-04-28 23:10 23.85750 90.39325 39 ft 8 kts 323°
2026-04-28 23:10 23.85762 90.39267 41 ft 10 kts 248°
2026-04-28 23:11 23.85704 90.39177 41 ft 18 kts 233°
2026-04-28 23:11 23.85632 90.39069 41 ft 18 kts 234°
2026-04-28 23:11 23.85560 90.38961 40 ft 18 kts 233°
2026-04-28 23:11 23.85467 90.38890 40 ft 18 kts 166°
2026-04-28 23:12 23.85327 90.38992 39 ft 41 kts 144°
2026-04-28 23:12 23.84897 90.39334 40 ft 111 kts 143°
2026-04-28 23:12 23.84097 90.39970 41 ft 170 kts 144°
2026-04-28 23:12 23.83063 90.40800 379 ft 186 kts 142°
2026-04-28 23:13 23.82033 90.41631 1059 ft 184 kts 145°
2026-04-28 23:13 23.81003 90.42435 1653 ft 186 kts 146°
2026-04-28 23:13 23.79937 90.43259 2138 ft 190 kts 148°
2026-04-28 23:13 23.78742 90.43834 2483 ft 191 kts 177°
2026-04-28 23:14 23.77433 90.43743 2937 ft 189 kts 194°
2026-04-28 23:14 23.76276 90.43111 3241 ft 193 kts 231°
2026-04-28 23:14 23.75529 90.41862 3400 ft 208 kts 237°
2026-04-28 23:14 23.74697 90.40472 3602 ft 230 kts 239°
2026-04-28 23:15 23.73907 90.38897 4005 ft 243 kts 242°
2026-04-28 23:15 23.73112 90.37224 4555 ft 252 kts 243°
2026-04-28 23:15 23.72299 90.35504 5182 ft 257 kts 243°
2026-04-28 23:15 23.71468 90.33754 5864 ft 261 kts 244°
2026-04-28 23:16 23.70627 90.31988 6582 ft 263 kts 244°
2026-04-28 23:16 23.69775 90.30209 7257 ft 265 kts 244°
2026-04-28 23:16 23.68917 90.28424 7921 ft 267 kts 245°
2026-04-28 23:16 23.68046 90.26618 8570 ft 271 kts 245°
2026-04-28 23:17 23.67165 90.24795 9220 ft 273 kts 245°
2026-04-28 23:17 23.66272 90.22952 9882 ft 276 kts 245°
2026-04-28 23:17 23.65366 90.21079 10238 ft 290 kts 245°
2026-04-28 23:17 23.64387 90.19053 10396 ft 312 kts 245°
2026-04-28 23:18 23.63353 90.16918 10540 ft 333 kts 245°
2026-04-28 23:18 23.62236 90.14618 10712 ft 352 kts 245°
2026-04-28 23:18 23.61068 90.12219 11122 ft 362 kts 245°
2026-04-28 23:18 23.59876 90.09777 11629 ft 369 kts 245°
2026-04-28 23:19 23.58662 90.07291 12240 ft 372 kts 245°
2026-04-28 23:19 23.57438 90.04788 12913 ft 375 kts 245°
2026-04-28 23:19 23.56202 90.02259 13541 ft 378 kts 245°
2026-04-28 23:19 23.54956 89.99708 14086 ft 382 kts 245°
2026-04-28 23:20 23.53719 89.97177 14652 ft 385 kts 245°
2026-04-28 23:20 23.52456 89.94593 15239 ft 387 kts 245°
2026-04-28 23:20 23.51177 89.91977 15802 ft 391 kts 245°
2026-04-28 23:20 23.49891 89.89347 16336 ft 395 kts 245°
2026-04-28 23:21 23.48592 89.86693 16885 ft 399 kts 245°
2026-04-28 23:21 23.47276 89.84006 17439 ft 403 kts 245°
2026-04-28 23:21 23.45952 89.81304 17986 ft 407 kts 245°
2026-04-28 23:21 23.44626 89.78601 18463 ft 410 kts 245°
2026-04-28 23:22 23.43277 89.75850 18940 ft 414 kts 245°
2026-04-28 23:22 23.41918 89.73080 19433 ft 416 kts 244°
2026-04-28 23:22 23.40542 89.70280 19949 ft 419 kts 244°
2026-04-28 23:22 23.39225 89.67449 20407 ft 421 kts 249°
2026-04-28 23:23 23.38264 89.64429 20850 ft 423 kts 256°
2026-04-28 23:23 23.37628 89.61294 21286 ft 426 kts 262°
2026-04-28 23:23 23.37334 89.58075 21754 ft 428 kts 267°
2026-04-28 23:23 23.37161 89.54823 22197 ft 432 kts 268°
2026-04-28 23:24 23.36997 89.51551 22624 ft 436 kts 268°
2026-04-28 23:24 23.36829 89.48239 23058 ft 440 kts 268°
2026-04-28 23:24 23.36654 89.44891 23460 ft 443 kts 267°
2026-04-28 23:24 23.36474 89.41575 23825 ft 446 kts 267°
2026-04-28 23:25 23.36285 89.38198 24202 ft 449 kts 267°
2026-04-28 23:25 23.36091 89.34798 24576 ft 451 kts 267°
2026-04-28 23:25 23.35893 89.31383 24931 ft 454 kts 267°
2026-04-28 23:25 23.35693 89.27941 25297 ft 457 kts 267°
2026-04-28 23:26 23.35489 89.24476 25660 ft 460 kts 267°
2026-04-28 23:26 23.35284 89.20992 26011 ft 463 kts 266°
2026-04-28 23:26 23.35077 89.17487 26336 ft 467 kts 266°
2026-04-28 23:26 23.34867 89.13943 26682 ft 470 kts 266°
2026-04-28 23:27 23.34655 89.10381 27045 ft 472 kts 266°
2026-04-28 23:27 23.34441 89.06803 27405 ft 475 kts 266°
2026-04-28 23:27 23.34228 89.03246 27754 ft 477 kts 266°
2026-04-28 23:27 23.34010 88.99629 28073 ft 480 kts 266°
2026-04-28 23:28 23.33791 88.95999 28399 ft 482 kts 266°
2026-04-28 23:28 23.33569 88.92336 28687 ft 485 kts 266°
2026-04-28 23:28 23.33346 88.88666 28992 ft 487 kts 266°
2026-04-28 23:28 23.33120 88.84968 29310 ft 489 kts 266°
2026-04-28 23:29 23.32896 88.81312 29601 ft 491 kts 266°
2026-04-28 23:29 23.32666 88.77588 29860 ft 493 kts 266°
2026-04-28 23:29 23.32436 88.73855 30193 ft 492 kts 266°
2026-04-28 23:29 23.32205 88.70135 30603 ft 490 kts 266°
2026-04-28 23:30 23.31975 88.66439 30955 ft 489 kts 266°
2026-04-28 23:30 23.31747 88.62787 31249 ft 489 kts 266°
2026-04-28 23:30 23.31515 88.59091 31606 ft 488 kts 266°
2026-04-28 23:30 23.31283 88.55416 31980 ft 486 kts 266°
2026-04-28 23:31 23.31051 88.51744 32286 ft 487 kts 266°
2026-04-28 23:31 23.30818 88.48070 32575 ft 487 kts 266°
2026-04-28 23:31 23.30585 88.44399 32950 ft 485 kts 265°
2026-04-28 23:31 23.30351 88.40748 33324 ft 483 kts 265°
2026-04-28 23:32 23.30117 88.37091 33623 ft 483 kts 265°
2026-04-28 23:32 23.29881 88.33434 33675 ft 487 kts 265°
2026-04-28 23:32 23.29404 88.26075 33724 ft 495 kts 265°
2026-04-28 23:33 23.28913 88.18540 33733 ft 503 kts 265°
2026-04-28 23:33 23.28413 88.10921 33727 ft 505 kts 265°
2026-04-28 23:34 23.27907 88.03275 33724 ft 505 kts 265°
2026-04-28 23:34 23.27401 87.95686 33725 ft 505 kts 265°
2026-04-28 23:35 23.26888 87.88047 33720 ft 504 kts 265°
2026-04-28 23:35 23.26377 87.80490 33728 ft 503 kts 265°
2026-04-28 23:36 23.25858 87.72880 33727 ft 502 kts 265°
2026-04-28 23:36 23.25342 87.65349 33737 ft 500 kts 265°
2026-04-28 23:37 23.24820 87.57797 33728 ft 499 kts 265°
2026-04-28 23:37 23.24296 87.50276 33731 ft 498 kts 265°
2026-04-28 23:38 23.23774 87.42817 33735 ft 497 kts 265°
2026-04-28 23:38 23.23244 87.35303 33740 ft 497 kts 265°
2026-04-28 23:39 23.22714 87.27839 33742 ft 497 kts 265°
2026-04-28 23:39 23.22174 87.20290 33746 ft 497 kts 265°
2026-04-28 23:40 23.21638 87.12842 33744 ft 497 kts 264°
2026-04-28 23:40 23.21095 87.05349 33758 ft 497 kts 264°
2026-04-28 23:41 23.20548 86.97845 33755 ft 497 kts 264°
2026-04-28 23:41 23.19998 86.90364 33760 ft 496 kts 265°
2026-04-28 23:42 23.19449 86.82928 33756 ft 496 kts 265°
2026-04-28 23:42 23.18894 86.75462 33761 ft 495 kts 265°
2026-04-28 23:43 23.18334 86.67987 33762 ft 495 kts 265°
2026-04-28 23:43 23.17771 86.60510 33770 ft 495 kts 265°
2026-04-28 23:44 23.17208 86.53096 33773 ft 495 kts 265°
2026-04-28 23:44 23.16639 86.45627 33777 ft 494 kts 265°
2026-04-28 23:45 23.16069 86.38204 33779 ft 494 kts 265°
2026-04-28 23:45 23.15495 86.30765 33789 ft 494 kts 265°
2026-04-28 23:46 23.14917 86.23326 33783 ft 494 kts 265°
2026-04-28 23:46 23.14336 86.15898 33807 ft 493 kts 265°
2026-04-28 23:47 23.13755 86.08519 33794 ft 491 kts 265°
2026-04-28 23:47 23.13171 86.01136 33786 ft 489 kts 265°
2026-04-28 23:48 23.12587 85.93790 33792 ft 487 kts 265°
2026-04-28 23:48 23.12000 85.86468 33802 ft 486 kts 265°
2026-04-28 23:49 23.11411 85.79158 33800 ft 486 kts 265°
2026-04-28 23:49 23.10822 85.71875 33814 ft 487 kts 265°
2026-04-28 23:50 23.10224 85.64540 33815 ft 487 kts 265°
2026-04-28 23:50 23.09621 85.57182 33829 ft 488 kts 265°
2026-04-28 23:51 23.09015 85.49826 33833 ft 489 kts 265°
2026-04-28 23:51 23.08407 85.42496 33837 ft 489 kts 265°
2026-04-28 23:52 23.07794 85.35137 33845 ft 487 kts 265°
2026-04-28 23:52 23.07181 85.27829 33831 ft 484 kts 265°
2026-04-28 23:53 23.06572 85.20600 33845 ft 482 kts 265°
2026-04-28 23:53 23.05957 85.13346 33848 ft 481 kts 265°
2026-04-28 23:54 23.05343 85.06138 33851 ft 481 kts 265°
2026-04-28 23:54 23.04724 84.98912 33850 ft 481 kts 264°
2026-04-28 23:55 23.04099 84.91659 33845 ft 482 kts 264°
2026-04-28 23:55 23.03577 84.85628 33850 ft 483 kts 264°
2026-04-28 23:56 23.02945 84.78355 33844 ft 484 kts 264°
2026-04-28 23:56 23.02308 84.71072 33848 ft 485 kts 264°
2026-04-28 23:57 23.01667 84.63777 33841 ft 485 kts 264°
2026-04-28 23:57 23.01020 84.56458 33838 ft 485 kts 264°
2026-04-28 23:58 23.00376 84.49212 33836 ft 486 kts 264°
2026-04-28 23:58 22.99722 84.41889 33839 ft 486 kts 264°
2026-04-28 23:59 22.99069 84.34622 33830 ft 486 kts 264°
2026-04-28 23:59 22.98411 84.27331 33822 ft 486 kts 264°
2026-04-29 00:00 22.97750 84.20028 33821 ft 485 kts 264°
2026-04-29 00:00 22.97173 84.12732 33826 ft 485 kts 268°
2026-04-29 00:01 22.97444 84.05417 33829 ft 485 kts 273°
2026-04-29 00:01 22.97884 83.98156 33817 ft 485 kts 273°
2026-04-29 00:02 22.98298 83.90852 33823 ft 485 kts 272°
2026-04-29 00:02 22.98691 83.83549 33824 ft 484 kts 272°
2026-04-29 00:03 22.99077 83.76260 33812 ft 483 kts 272°
2026-04-29 00:03 22.99458 83.68974 33800 ft 483 kts 272°
2026-04-29 00:04 22.99835 83.61731 33805 ft 483 kts 272°
2026-04-29 00:04 23.00210 83.54456 33805 ft 483 kts 272°
2026-04-29 00:05 23.00584 83.47161 33795 ft 483 kts 272°
2026-04-29 00:05 23.00952 83.39898 33786 ft 483 kts 272°
2026-04-29 00:06 23.01318 83.32619 33788 ft 483 kts 272°
2026-04-29 00:06 23.01680 83.25337 33768 ft 483 kts 272°
2026-04-29 00:07 23.02040 83.18040 33770 ft 483 kts 272°
2026-04-29 00:07 23.02394 83.10803 33754 ft 483 kts 272°
2026-04-29 00:08 23.02748 83.03487 33760 ft 484 kts 272°
2026-04-29 00:08 23.03099 82.96166 33755 ft 485 kts 272°
2026-04-29 00:09 23.03444 82.88895 33751 ft 486 kts 272°
2026-04-29 00:09 23.03789 82.81562 33747 ft 486 kts 272°
2026-04-29 00:10 23.04130 82.74231 33740 ft 487 kts 272°
2026-04-29 00:10 23.04470 82.66876 33748 ft 487 kts 272°
2026-04-29 00:11 23.04804 82.59551 33744 ft 488 kts 272°
2026-04-29 00:12 23.05301 82.48508 33747 ft 488 kts 272°
2026-04-29 00:12 23.05630 82.41114 33744 ft 489 kts 272°
2026-04-29 00:13 23.05953 82.33787 33750 ft 489 kts 272°
2026-04-29 00:13 23.06274 82.26411 33743 ft 489 kts 272°
2026-04-29 00:14 23.06592 82.19028 33745 ft 488 kts 272°
2026-04-29 00:14 23.06956 82.11662 33744 ft 488 kts 273°
2026-04-29 00:15 23.07429 82.04339 33740 ft 488 kts 273°
2026-04-29 00:15 23.07753 81.99412 33745 ft 488 kts 273°
2026-04-29 00:16 23.07834 81.98163 33746 ft 488 kts 273°